�N����,����,�~����,�C��,���x,�C��,����,���ϕ���,�ő�u�ԕ���,�ő厞����,���˗�,�I�_���x,�n�����x,�ő啗���N��,DTYPE
"23/08/09","00:10",0.0,28.3,80.1,1000.8,46.4,0.5,1.4,109.7,0.00,24.6,26.0,"00:05:36",1
"23/08/09","00:20",0.0,28.2,80.2,1000.0,40.2,0.2,0.9,29.6,0.00,24.5,25.9,"00:12:00",1
"23/08/09","00:30",0.0,28.1,80.4,1000.3,52.1,0.3,1.8,74.2,0.00,24.4,25.9,"00:28:24",1
"23/08/09","00:40",0.0,28.3,80.2,1000.0,82.1,0.8,1.9,118.9,0.00,24.6,26.0,"00:33:44",1
"23/08/09","00:50",0.0,28.3,80.0,1000.3,93.4,0.7,2.4,145.8,0.00,24.6,25.7,"00:49:20",1
"23/08/09","01:00",0.0,28.4,80.0,1000.3,113.4,0.5,2.5,114.9,0.00,24.7,26.0,"00:58:40",1
"23/08/09","01:10",0.0,28.5,79.8,1000.0,78.0,1.0,2.5,97.8,0.00,24.7,25.8,"01:05:04",1
"23/08/09","01:20",0.0,28.5,80.1,1000.0,68.4,1.2,3.4,350.7,0.00,24.8,26.1,"01:13:52",1
"23/08/09","01:30",0.0,28.4,80.9,1000.0,73.5,0.8,2.6,81.5,0.00,24.8,25.9,"01:27:36",1
"23/08/09","01:40",0.0,28.2,82.0,1000.0,68.7,1.0,2.6,110.8,0.00,24.9,25.9,"01:39:20",1
"23/08/09","01:50",0.0,27.9,82.8,999.6,48.4,0.6,2.2,116.3,0.00,24.7,26.0,"01:42:24",1
"23/08/09","02:00",0.0,27.8,83.4,999.8,98.0,0.5,1.4,105.5,0.00,24.8,25.8,"01:50:24",1
"23/08/09","02:10",0.0,27.7,83.8,999.8,96.5,0.3,1.1,128.0,0.00,24.7,25.9,"02:06:00",1
"23/08/09","02:20",0.0,27.8,83.8,1000.3,81.6,0.7,2.0,336.3,0.00,24.8,25.9,"02:14:16",1
"23/08/09","02:30",0.0,27.9,83.5,999.8,58.6,0.6,1.8,151.4,0.00,24.9,25.9,"02:28:56",1
"23/08/09","02:40",0.0,28.1,83.0,999.8,68.5,0.8,2.6,105.2,0.00,25.0,25.9,"02:36:16",1
"23/08/09","02:50",0.0,28.0,82.8,1000.0,86.6,1.0,2.2,78.0,0.00,24.8,25.9,"02:40:32",1
"23/08/09","03:00",0.0,28.0,82.9,1000.0,81.7,0.7,2.4,87.9,0.00,24.9,25.7,"02:53:04",1
"23/08/09","03:10",0.0,27.9,83.0,999.8,45.9,0.6,1.7,335.0,0.00,24.8,25.9,"03:04:32",1
"23/08/09","03:20",0.0,27.9,83.2,1000.0,48.7,0.7,2.9,351.3,0.00,24.8,25.8,"03:16:16",1
"23/08/09","03:30",0.0,27.9,83.3,999.8,68.5,0.7,2.7,130.2,0.00,24.8,25.8,"03:28:16",1
"23/08/09","03:40",0.0,27.9,83.4,1000.0,346.5,0.6,2.7,108.3,0.00,24.9,25.9,"03:35:20",1
"23/08/09","03:50",0.0,27.9,83.6,1000.0,20.1,0.6,1.4,164.1,0.00,24.9,25.8,"03:49:52",1
"23/08/09","04:00",0.0,27.9,83.7,1000.5,76.8,0.7,2.2,126.9,0.00,24.9,25.8,"03:51:44",1
"23/08/09","04:10",0.0,27.9,83.6,1000.3,118.4,0.8,2.1,187.1,0.00,24.9,26.0,"04:02:08",1
"23/08/09","04:20",0.0,27.9,83.5,1000.3,92.9,0.7,3.2,108.8,0.00,24.9,25.8,"04:17:20",1
"23/08/09","04:30",0.0,27.9,83.3,1000.5,118.1,0.6,1.7,157.0,0.00,24.8,25.9,"04:24:40",1
"23/08/09","04:40",0.0,27.9,83.0,1000.8,107.6,0.6,2.0,98.2,0.00,24.8,25.9,"04:36:24",1
"23/08/09","04:50",0.0,28.0,82.8,1000.5,107.5,0.8,2.5,113.8,0.00,24.8,25.7,"04:43:28",1
"23/08/09","05:00",0.0,28.0,82.5,1000.3,107.4,0.8,3.1,184.7,0.00,24.8,25.8,"04:53:44",1
"23/08/09","05:10",0.0,28.1,82.3,1000.5,123.1,0.8,3.3,112.6,0.00,24.8,25.9,"05:09:36",1
"23/08/09","05:20",0.0,28.1,82.2,1000.5,105.9,1.0,3.3,62.5,0.00,24.8,25.8,"05:16:16",1
"23/08/09","05:30",0.0,28.1,82.1,1000.5,128.2,0.8,3.2,129.7,0.00,24.8,25.8,"05:29:12",1
"23/08/09","05:40",0.0,28.2,82.0,1000.8,128.7,0.6,1.7,115.1,0.00,24.9,25.9,"05:39:20",1
"23/08/09","05:50",0.0,28.2,82.0,1000.8,114.0,0.8,2.5,146.6,0.01,24.9,25.7,"05:48:00",1
"23/08/09","06:00",0.0,28.3,81.9,1000.8,113.2,1.0,2.7,118.2,0.01,24.9,25.9,"05:50:16",1
"23/08/09","06:10",0.0,28.3,81.9,1000.5,95.0,0.6,1.8,75.9,0.00,24.9,25.7,"06:06:32",1
"23/08/09","06:20",0.0,28.4,81.9,1000.8,123.5,0.6,1.6,89.1,0.01,25.0,25.7,"06:17:28",1
"23/08/09","06:30",0.0,28.7,81.8,1000.5,128.4,0.5,1.8,114.1,0.03,25.3,25.8,"06:29:12",1
"23/08/09","06:40",0.0,28.7,81.0,1000.8,113.8,1.1,2.8,119.0,0.02,25.2,25.9,"06:37:20",1
"23/08/09","06:50",0.0,28.8,80.9,1001.0,105.4,1.1,2.6,118.1,0.03,25.2,25.7,"06:48:08",1
"23/08/09","07:00",0.0,29.0,80.8,1001.0,111.1,1.1,2.7,81.8,0.05,25.4,25.7,"06:55:36",1
"23/08/09","07:10",0.0,29.5,79.8,1000.5,113.0,1.1,2.9,102.4,0.10,25.7,25.8,"07:05:28",1
"23/08/09","07:20",0.0,29.7,79.2,1000.0,108.8,1.0,2.9,132.5,0.09,25.7,25.6,"07:16:16",1
"23/08/09","07:30",0.0,30.0,77.4,1000.8,114.6,1.1,4.1,162.8,0.11,25.7,26.0,"07:27:04",1
"23/08/09","07:40",0.0,29.7,77.2,1000.5,98.4,1.3,2.9,76.4,0.06,25.3,26.0,"07:30:08",1
"23/08/09","07:50",0.0,29.8,77.3,1000.3,107.8,1.2,2.9,109.0,0.08,25.4,25.8,"07:42:08",1
"23/08/09","08:00",0.0,29.9,77.2,1000.0,104.3,1.1,3.2,74.5,0.06,25.5,26.0,"07:59:44",1
"23/08/09","08:10",0.0,29.6,77.5,1000.5,82.6,1.2,2.8,87.4,0.01,25.3,25.9,"08:08:16",1
"23/08/09","08:20",0.0,29.6,78.3,1000.3,94.2,1.2,3.2,81.9,0.04,25.5,25.8,"08:11:12",1
"23/08/09","08:30",0.0,29.6,78.2,1000.3,99.7,1.1,2.6,155.1,0.03,25.4,25.8,"08:26:56",1
"23/08/09","08:40",0.0,29.7,78.0,1000.3,120.1,1.2,3.2,122.7,0.03,25.5,25.9,"08:38:16",1
"23/08/09","08:50",0.0,30.1,76.7,1000.5,127.8,1.3,3.2,125.2,0.05,25.6,26.0,"08:44:32",1
"23/08/09","09:00",0.0,30.2,75.8,1000.8,148.9,1.8,4.4,181.9,0.03,25.5,26.1,"08:55:20",1
"23/08/09","09:10",0.0,30.1,75.8,1000.8,156.0,1.7,3.3,158.0,0.03,25.4,26.1,"09:08:00",1
"23/08/09","09:20",0.0,30.3,75.4,1001.0,146.0,1.8,3.5,167.9,0.04,25.5,26.1,"09:15:04",1
"23/08/09","09:30",0.0,30.0,76.9,1000.8,154.7,1.2,4.1,174.7,0.03,25.5,26.1,"09:23:04",1
"23/08/09","09:40",0.2,29.5,78.3,1000.3,169.4,2.0,4.4,128.3,0.02,25.4,25.9,"09:38:08",1
"23/08/09","09:50",0.2,29.0,80.6,1001.2,160.9,1.6,3.4,178.1,0.01,25.4,26.0,"09:42:00",1
"23/08/09","10:00",0.2,28.8,82.3,1001.2,152.0,1.3,2.8,155.9,0.02,25.5,25.9,"09:55:04",1
"23/08/09","10:10",0.4,28.8,83.6,1001.2,123.0,0.5,1.9,141.4,0.05,25.8,26.0,"10:01:28",1
"23/08/09","10:20",0.0,28.6,84.6,1001.2,92.9,0.7,1.9,177.5,0.06,25.8,26.0,"10:10:32",1
"23/08/09","10:30",0.0,28.5,85.5,1001.2,78.6,0.7,1.6,129.9,0.10,25.9,26.0,"10:27:12",1
"23/08/09","10:40",0.0,28.7,86.1,1001.2,323.3,0.5,1.2,340.1,0.12,26.2,26.1,"10:36:24",1
"23/08/09","10:50",0.0,28.7,86.6,1001.5,23.5,0.7,1.6,339.0,0.13,26.3,26.2,"10:43:12",1
"23/08/09","11:00",0.0,28.7,86.8,1001.2,28.0,0.6,1.3,326.4,0.11,26.3,26.2,"10:53:04",1
"23/08/09","11:10",0.0,28.5,87.0,1001.2,55.3,0.7,2.2,31.6,0.12,26.2,26.1,"11:07:44",1
"23/08/09","11:20",0.2,28.8,87.2,1001.0,63.7,0.7,2.0,76.6,0.18,26.5,26.0,"11:10:08",1
"23/08/09","11:30",0.0,29.0,86.9,1001.2,19.5,1.1,2.8,4.6,0.28,26.6,26.2,"11:22:16",1
"23/08/09","11:40",0.0,29.0,86.6,1000.8,357.3,0.7,2.0,28.7,0.17,26.6,26.0,"11:31:04",1
"23/08/09","11:50",0.0,29.7,86.1,1001.0,5.6,0.5,1.4,33.7,0.24,27.2,26.2,"11:41:28",1
"23/08/09","12:00",0.0,29.9,84.8,1001.5,163.9,0.6,1.4,357.7,0.29,27.1,26.2,"11:50:08",1
"23/08/09","12:10",0.0,30.1,81.0,1001.9,131.5,1.2,3.4,133.2,0.20,26.5,26.2,"12:07:24",1
"23/08/09","12:20",0.0,30.1,79.4,1001.7,135.5,1.3,3.7,149.2,0.12,26.2,26.2,"12:12:56",1
"23/08/09","12:30",0.0,31.1,77.6,1001.9,125.2,0.8,2.2,121.0,0.26,26.8,26.4,"12:26:24",1
"23/08/09","12:40",0.0,30.7,76.3,1001.7,115.3,1.0,3.2,130.4,0.08,26.1,26.5,"12:33:04",1
"23/08/09","12:50",0.0,30.3,76.9,1001.5,134.7,1.2,2.7,162.6,0.08,25.8,26.5,"12:42:16",1
"23/08/09","13:00",0.0,30.2,77.0,1001.2,133.7,1.5,3.3,140.3,0.06,25.8,26.5,"12:56:48",1
"23/08/09","13:10",0.0,30.1,77.4,1001.0,100.1,1.1,3.3,69.4,0.06,25.7,26.3,"13:02:32",1
"23/08/09","13:20",0.0,30.1,78.1,1000.8,112.2,1.0,2.5,146.1,0.06,25.9,26.4,"13:11:36",1
"23/08/09","13:30",0.0,30.4,78.1,1001.0,97.8,1.0,1.9,122.1,0.12,26.2,26.4,"13:21:52",1
"23/08/09","13:40",0.0,30.7,77.6,1000.8,139.5,1.0,2.6,131.7,0.14,26.4,26.4,"13:38:08",1
"23/08/09","13:50",0.0,31.4,75.0,1001.2,109.8,1.1,2.9,80.5,0.22,26.5,26.4,"13:40:02",1
"23/08/09","14:00",0.0,31.1,75.3,1001.0,107.9,1.0,2.6,122.3,0.09,26.2,26.4,"13:51:12",1
"23/08/09","14:10",0.0,31.3,75.5,1001.0,112.0,0.8,2.2,174.2,0.13,26.5,26.6,"14:06:32",1
"23/08/09","14:20",0.0,31.1,75.6,1001.0,127.3,1.2,4.0,121.9,0.06,26.3,26.6,"14:15:04",1
"23/08/09","14:30",0.0,31.2,75.2,1001.0,121.1,1.1,3.4,133.2,0.09,26.3,26.8,"14:28:32",1
"23/08/09","14:40",0.0,30.9,75.6,1001.0,106.9,1.6,4.5,118.0,0.10,26.1,26.5,"14:33:20",1
"23/08/09","14:50",0.0,30.1,77.8,1000.8,109.6,1.0,3.1,140.5,0.05,25.8,26.7,"14:45:04",1
"23/08/09","15:00",0.0,29.9,79.6,1000.5,122.7,0.8,2.4,103.8,0.07,26.0,26.6,"14:59:44",1
"23/08/09","15:10",0.0,29.7,80.5,1000.3,98.9,0.8,1.9,119.9,0.03,26.0,26.4,"15:00:02",1
"23/08/09","15:20",0.0,29.5,81.4,1000.0,120.1,0.7,1.9,147.3,0.01,26.0,26.7,"15:12:48",1
"23/08/09","15:30",0.0,29.5,81.8,999.8,82.4,0.8,2.1,112.4,0.01,26.1,26.7,"15:20:56",1
"23/08/09","15:40",0.0,29.4,82.2,999.8,80.2,0.7,2.0,71.7,0.00,26.1,26.5,"15:30:48",1
"23/08/09","15:50",0.0,29.4,82.7,999.8,72.8,0.5,1.7,82.0,0.01,26.2,26.7,"15:41:20",1
"23/08/09","16:00",0.0,29.3,83.0,999.6,90.1,0.5,1.7,38.8,0.00,26.2,26.5,"15:59:44",1
"23/08/09","16:10",0.0,29.3,83.1,999.3,31.9,0.5,1.1,71.7,0.00,26.2,26.5,"16:00:56",1
"23/08/09","16:20",0.0,29.5,82.9,999.3,27.4,0.5,1.1,39.1,0.02,26.3,26.3,"16:10:02",1
"23/08/09","16:30",0.0,29.9,82.4,999.6,38.3,0.6,1.8,1.4,0.09,26.6,26.5,"16:21:44",1
"23/08/09","16:40",0.0,31.0,80.1,999.3,123.0,0.7,2.0,108.1,0.15,27.2,26.5,"16:33:52",1
"23/08/09","16:50",0.0,31.1,77.1,1000.5,117.8,0.8,2.1,101.7,0.08,26.6,26.7,"16:44:56",1
"23/08/09","17:00",0.0,30.8,76.6,1000.8,85.4,0.7,1.7,67.0,0.01,26.2,26.5,"16:56:56",1
"23/08/09","17:10",0.0,30.5,77.4,1000.5,56.3,0.5,1.9,110.0,0.00,26.1,26.6,"17:07:12",1
"23/08/09","17:20",0.0,30.3,76.9,1000.3,91.1,1.0,3.1,118.7,0.00,25.8,26.5,"17:16:24",1
"23/08/09","17:30",0.0,30.4,76.7,1000.3,90.8,0.8,2.5,119.1,0.00,25.9,26.5,"17:22:40",1
"23/08/09","17:40",0.0,30.3,77.3,1000.0,83.0,1.0,2.1,114.1,0.01,25.9,26.8,"17:31:44",1
"23/08/09","17:50",0.0,30.1,78.0,1000.0,73.9,0.7,2.1,60.8,0.00,25.9,26.7,"17:42:24",1
"23/08/09","18:00",0.0,29.9,78.4,1000.0,73.3,0.8,2.4,79.6,0.00,25.8,26.7,"17:59:12",1
"23/08/09","18:10",0.0,29.8,78.4,999.8,82.3,1.0,2.0,32.6,0.00,25.7,26.5,"18:02:56",1
"23/08/09","18:20",0.0,29.8,78.5,999.8,75.4,0.7,2.1,3.6,0.00,25.7,26.6,"18:16:00",1
"23/08/09","18:30",0.0,29.7,78.7,999.8,90.2,0.8,2.2,97.6,0.00,25.6,26.6,"18:24:40",1
"23/08/09","18:40",0.0,29.7,78.8,1000.0,68.4,0.6,1.7,102.7,0.00,25.7,26.6,"18:30:56",1
"23/08/09","18:50",0.0,29.5,79.2,1000.3,83.0,0.7,1.8,46.7,0.00,25.6,26.5,"18:41:04",1
"23/08/09","19:00",0.0,29.4,79.2,1000.8,103.3,0.8,2.0,99.8,0.00,25.5,26.6,"18:56:08",1
"23/08/09","19:10",0.0,29.5,78.6,1000.8,92.2,1.0,1.8,96.4,0.00,25.4,26.6,"19:00:48",1
"23/08/09","19:20",0.0,29.6,78.4,1000.8,87.9,1.1,3.2,73.4,0.00,25.5,26.3,"19:11:12",1
"23/08/09","19:30",0.0,29.5,78.8,1000.8,103.3,1.0,2.4,113.1,0.00,25.5,26.3,"19:22:40",1
"23/08/09","19:40",0.0,29.3,79.2,1001.0,99.8,0.8,3.1,125.1,0.00,25.4,26.3,"19:35:28",1
"23/08/09","19:50",0.0,29.3,79.1,1001.2,104.9,1.1,2.9,117.1,0.00,25.3,26.6,"19:47:28",1
"23/08/09","20:00",0.0,29.4,78.7,1001.2,95.0,1.1,2.6,84.4,0.00,25.4,26.4,"19:52:48",1
"23/08/09","20:10",0.0,29.3,78.4,1001.2,99.8,1.2,2.5,80.8,0.00,25.2,26.4,"20:02:08",1
"23/08/09","20:20",0.0,29.2,78.8,1001.5,95.3,1.0,2.6,83.0,0.00,25.2,26.4,"20:11:04",1
"23/08/09","20:30",0.0,29.1,79.4,1001.5,91.6,0.7,2.7,122.2,0.00,25.2,26.2,"20:22:00",1
"23/08/09","20:40",0.0,29.0,79.9,1001.5,82.4,0.8,2.1,112.0,0.00,25.2,26.3,"20:38:32",1
"23/08/09","20:50",0.0,28.9,80.1,1001.2,82.8,0.8,2.5,95.6,0.00,25.2,26.4,"20:44:16",1
"23/08/09","21:00",0.0,28.9,80.2,1001.5,84.4,0.7,1.6,123.2,0.00,25.2,26.5,"20:51:04",1
"23/08/09","21:10",0.0,29.0,80.0,1001.0,63.7,1.0,2.4,129.6,0.00,25.2,26.5,"21:00:56",1
"23/08/09","21:20",0.0,28.9,80.0,1001.5,83.2,0.6,1.9,91.8,0.00,25.1,26.3,"21:11:04",1
"23/08/09","21:30",0.0,28.8,80.4,1001.5,108.2,0.7,2.2,111.5,0.00,25.1,26.3,"21:28:56",1
"23/08/09","21:40",0.0,28.8,80.3,1001.0,100.8,1.0,2.4,144.6,0.00,25.1,26.2,"21:30:48",1
"23/08/09","21:50",0.0,28.8,80.2,1001.2,100.9,0.7,2.0,91.1,0.00,25.1,26.3,"21:47:36",1
"23/08/09","22:00",0.0,28.8,80.4,1001.0,90.5,0.6,1.9,92.0,0.00,25.1,26.2,"21:57:44",1
"23/08/09","22:10",0.0,28.7,80.7,1001.0,71.3,0.6,1.4,120.0,0.00,25.1,26.1,"22:00:56",1
"23/08/09","22:20",0.0,28.7,80.6,1001.5,93.3,0.8,2.1,91.8,0.00,25.1,26.2,"22:19:28",1
"23/08/09","22:30",0.0,28.8,80.1,1001.0,111.2,1.1,2.5,135.0,0.00,25.1,26.1,"22:25:36",1
"23/08/09","22:40",0.0,28.9,79.6,1001.0,98.9,1.0,2.8,160.9,0.00,25.1,26.1,"22:31:52",1
"23/08/09","22:50",0.0,28.8,79.8,1000.8,94.1,0.8,2.6,91.2,0.00,25.0,26.4,"22:45:36",1
"23/08/09","23:00",0.0,28.7,80.5,1001.0,86.5,1.0,2.6,96.9,0.00,25.1,26.1,"22:58:24",1
"23/08/09","23:10",0.0,28.6,81.0,1001.2,91.0,0.8,2.9,103.9,0.00,25.1,26.1,"23:00:24",1
"23/08/09","23:20",0.0,28.6,81.2,1001.2,77.5,0.8,3.2,88.6,0.00,25.1,26.0,"23:18:32",1
"23/08/09","23:30",0.0,28.5,81.1,1001.0,73.1,1.2,3.5,75.8,0.00,25.0,26.1,"23:28:32",1
"23/08/09","23:40",0.0,28.6,81.2,1001.0,79.3,1.0,2.4,121.0,0.00,25.1,26.2,"23:31:04",1
"23/08/09","23:50",0.0,28.2,82.3,1000.8,67.9,1.0,2.1,107.6,0.00,24.9,26.3,"23:46:40",1
"23/08/09","24:00",0.0,27.9,83.4,1001.0,85.3,1.0,2.5,74.3,0.00,24.9,26.2,"23:53:04",1
